When you browse on this site, cookies collect data to enhance your experience and personalize the content and advertising you see.
Visit our Privacy Policy to learn more. By continuing to use the site, you agree to this use of cookies and data.
  • în România
  • Lista ţărilor
  • Pe 7 zile
  • Temperatura apei
  • Meteo pe hartă
  • Widget-uri
  • user-avatar
    Intrare

    Meteo pe oră la Karbala

    Astăzi, 3 Aprilie, Vineri

    Timp Temperatura Precipitaţii Vânt Presiune Umiditate
    00:00 +21°C° 0 mm 4 m/s 756 mmHg 42%
    01:00 +21°C° 0 mm 3 m/s 756 mmHg 43%
    02:00 +20°C° 0 mm 3 m/s 755 mmHg 43%
    03:00 +20°C° 0 mm 2 m/s 755 mmHg 44%
    04:00 +19°C° 0 mm 2 m/s 756 mmHg 45%
    05:00 +19°C° 0 mm 2 m/s 756 mmHg 47%
    06:00 +20°C° 0 mm 1 m/s 756 mmHg 48%
    07:00 +21°C° 0 mm 1 m/s 757 mmHg 44%
    08:00 +20°C° 0 mm 0 m/s 757 mmHg 41%
    09:00 +21°C° 0 mm 0 m/s 758 mmHg 38%
    10:00 +22°C° 0 mm 0 m/s 758 mmHg 35%
    11:00 +23°C° 0 mm 0 m/s 758 mmHg 33%
    12:00 +26°C° 0 mm 1 m/s 758 mmHg 30%
    13:00 +27°C° 0 mm 1 m/s 757 mmHg 29%
    14:00 +27°C° 0 mm 1 m/s 757 mmHg 27%
    15:00 +28°C° 0 mm 2 m/s 756 mmHg 27%
    16:00 +28°C° 0 mm 2 m/s 756 mmHg 26%
    17:00 +28°C° 0 mm 2 m/s 756 mmHg 26%
    18:00 +28°C° 0 mm 2 m/s 756 mmHg 26%
    19:00 +28°C° 0 mm 3 m/s 756 mmHg 27%
    20:00 +27°C° 0 mm 4 m/s 756 mmHg 28%
    21:00 +26°C° 0 mm 5 m/s 756 mmHg 29%
    22:00 +25°C° 0 mm 4 m/s 756 mmHg 31%
    23:00 +25°C° 0 mm 4 m/s 756 mmHg 32%

    Mâine, 4 Aprilie, Sâmbătă

    Timp Temperatura Precipitaţii Vânt Presiune Umiditate
    00:00 +23°C° 0 mm 4 m/s 757 mmHg 34%
    01:00 +23°C° 0 mm 4 m/s 757 mmHg 34%
    02:00 +22°C° 0 mm 4 m/s 756 mmHg 35%
    03:00 +22°C° 0 mm 4 m/s 756 mmHg 35%
    04:00 +22°C° 0 mm 4 m/s 757 mmHg 36%
    05:00 +21°C° 0 mm 3 m/s 758 mmHg 37%
    06:00 +21°C° 0 mm 3 m/s 758 mmHg 38%
    07:00 +22°C° 0 mm 4 m/s 758 mmHg 36%
    08:00 +23°C° 0 mm 4 m/s 759 mmHg 34%
    09:00 +25°C° 0 mm 5 m/s 759 mmHg 32%
    10:00 +26°C° 0 mm 5 m/s 759 mmHg 31%
    11:00 +27°C° 0 mm 5 m/s 759 mmHg 30%
    12:00 +27°C° 0 mm 5 m/s 759 mmHg 30%
    13:00 +28°C° 0 mm 5 m/s 759 mmHg 29%
    14:00 +28°C° 0 mm 5 m/s 758 mmHg 28%
    15:00 +28°C° 0 mm 5 m/s 758 mmHg 28%
    16:00 +28°C° 0 mm 5 m/s 758 mmHg 28%
    17:00 +27°C° 0 mm 5 m/s 758 mmHg 29%
    18:00 +27°C° 0 mm 5 m/s 759 mmHg 30%
    19:00 +26°C° 0 mm 5 m/s 759 mmHg 30%
    20:00 +25°C° 0 mm 5 m/s 759 mmHg 31%
    21:00 +23°C° 0 mm 5 m/s 760 mmHg 32%
    22:00 +23°C° 0 mm 4 m/s 760 mmHg 33%
    23:00 +22°C° 0 mm 4 m/s 760 mmHg 34%

    Poimâine, 5 Aprilie, Duminică

    Timp Temperatura Precipitaţii Vânt Presiune Umiditate
    00:00 +21°C° 0 mm 4 m/s 760 mmHg 35%
    01:00 +21°C° 0 mm 4 m/s 760 mmHg 35%
    02:00 +21°C° 0 mm 4 m/s 760 mmHg 35%
    03:00 +20°C° 0 mm 4 m/s 759 mmHg 35%
    04:00 +20°C° 0 mm 4 m/s 760 mmHg 36%
    05:00 +19°C° 0 mm 4 m/s 760 mmHg 38%
    06:00 +18°C° 0 mm 3 m/s 760 mmHg 39%
    07:00 +20°C° 0 mm 3 m/s 760 mmHg 37%
    08:00 +21°C° 0 mm 3 m/s 761 mmHg 34%
    09:00 +24°C° 0 mm 3 m/s 761 mmHg 32%
    10:00 +25°C° 0 mm 3 m/s 761 mmHg 28%
    11:00 +26°C° 0 mm 2 m/s 761 mmHg 24%
    12:00 +28°C° 0 mm 2 m/s 761 mmHg 20%
    13:00 +28°C° 0 mm 2 m/s 760 mmHg 19%
    14:00 +28°C° 0 mm 3 m/s 759 mmHg 19%
    15:00 +29°C° 0 mm 3 m/s 759 mmHg 18%
    16:00 +28°C° 0 mm 3 m/s 759 mmHg 19%
    17:00 +28°C° 0 mm 3 m/s 758 mmHg 19%
    18:00 +27°C° 0 mm 3 m/s 758 mmHg 20%
    19:00 +27°C° 0 mm 3 m/s 758 mmHg 21%
    20:00 +26°C° 0 mm 2 m/s 758 mmHg 22%
    21:00 +26°C° 0 mm 2 m/s 759 mmHg 23%
    22:00 +25°C° 0 mm 2 m/s 758 mmHg 23%
    23:00 +25°C° 0 mm 2 m/s 758 mmHg 24%

    6 Aprilie, Luni

    Timp Temperatura Precipitaţii Vânt Presiune Umiditate
    00:00 +24°C° 0 mm 2 m/s 758 mmHg 24%
    01:00 +24°C° 0 mm 2 m/s 758 mmHg 23%
    02:00 +24°C° 0 mm 2 m/s 757 mmHg 22%
    03:00 +24°C° 0 mm 2 m/s 757 mmHg 22%
    04:00 +22°C° 0 mm 3 m/s 757 mmHg 22%
    05:00 +22°C° 0 mm 3 m/s 757 mmHg 22%
    06:00 +22°C° 0 mm 3 m/s 757 mmHg 22%
    07:00 +25°C° 0 mm 4 m/s 757 mmHg 20%
    08:00 +27°C° 0 mm 5 m/s 757 mmHg 18%
    09:00 +28°C° 0 mm 6 m/s 757 mmHg 16%
    10:00 +30°C° 0.1 mm 6 m/s 756 mmHg 15%
    11:00 +32°C° 0.1 mm 6 m/s 756 mmHg 15%
    12:00 +34°C° 0.1 mm 7 m/s 755 mmHg 15%
    13:00 +34°C° 0.4 mm 7 m/s 754 mmHg 15%
    14:00 +35°C° 0.4 mm 7 m/s 754 mmHg 16%
    15:00 +35°C° 0.4 mm 7 m/s 753 mmHg 17%
    16:00 +35°C° 0 mm 7 m/s 753 mmHg 18%
    17:00 +34°C° 0 mm 7 m/s 752 mmHg 18%
    18:00 +34°C° 0 mm 7 m/s 752 mmHg 19%
    19:00 +33°C° 0 mm 6 m/s 752 mmHg 20%
    20:00 +32°C° 0 mm 6 m/s 752 mmHg 22%
    21:00 +30°C° 0 mm 6 m/s 753 mmHg 23%
    22:00 +29°C° 0 mm 5 m/s 752 mmHg 24%
    23:00 +29°C° 0 mm 4 m/s 752 mmHg 25%

    7 Aprilie, Marţi

    Timp Temperatura Precipitaţii Vânt Presiune Umiditate
    00:00 +28°C° 0 mm 4 m/s 752 mmHg 26%
    01:00 +28°C° 0 mm 3 m/s 752 mmHg 28%
    02:00 +27°C° 0 mm 3 m/s 752 mmHg 30%
    03:00 +26°C° 0 mm 3 m/s 752 mmHg 31%
    04:00 +26°C° 0 mm 4 m/s 752 mmHg 35%
    05:00 +24°C° 0 mm 6 m/s 753 mmHg 38%
    06:00 +23°C° 0 mm 7 m/s 753 mmHg 42%
    07:00 +24°C° 0 mm 7 m/s 753 mmHg 39%
    08:00 +24°C° 0 mm 7 m/s 754 mmHg 37%
    09:00 +26°C° 0 mm 7 m/s 754 mmHg 34%
    10:00 +28°C° 0 mm 6 m/s 754 mmHg 31%
    11:00 +29°C° 0 mm 6 m/s 754 mmHg 29%
    12:00 +32°C° 0 mm 6 m/s 754 mmHg 26%
    13:00 +32°C° 0 mm 5 m/s 754 mmHg 24%
    14:00 +33°C° 0 mm 5 m/s 753 mmHg 22%
    15:00 +33°C° 0 mm 5 m/s 753 mmHg 21%
    16:00 +33°C° 0 mm 5 m/s 753 mmHg 21%
    17:00 +32°C° 0 mm 5 m/s 752 mmHg 22%
    18:00 +30°C° 0 mm 5 m/s 752 mmHg 23%
    19:00 +29°C° 0 mm 5 m/s 753 mmHg 24%
    20:00 +29°C° 0 mm 5 m/s 753 mmHg 26%
    21:00 +28°C° 0 mm 4 m/s 753 mmHg 27%
    22:00 +27°C° 0 mm 4 m/s 753 mmHg 27%
    23:00 +27°C° 0 mm 4 m/s 753 mmHg 27%

    8 Aprilie, Miercuri

    Timp Temperatura Precipitaţii Vânt Presiune Umiditate
    00:00 +27°C° 0 mm 4 m/s 752 mmHg 27%
    01:00 +26°C° 0 mm 4 m/s 752 mmHg 28%
    02:00 +26°C° 0 mm 4 m/s 752 mmHg 28%
    03:00 +26°C° 0 mm 4 m/s 752 mmHg 28%
    04:00 +25°C° 0 mm 4 m/s 752 mmHg 30%
    05:00 +25°C° 0 mm 3 m/s 752 mmHg 32%
    06:00 +24°C° 0 mm 3 m/s 752 mmHg 33%
    07:00 +26°C° 0 mm 3 m/s 752 mmHg 32%
    08:00 +27°C° 0 mm 3 m/s 753 mmHg 30%
    09:00 +28°C° 0 mm 3 m/s 753 mmHg 29%
    10:00 +29°C° 0 mm 2 m/s 752 mmHg 28%
    11:00 +30°C° 0 mm 2 m/s 752 mmHg 27%
    12:00 +32°C° 0 mm 2 m/s 752 mmHg 26%
    13:00 +34°C° 0 mm 2 m/s 751 mmHg 25%
    14:00 +34°C° 0 mm 3 m/s 750 mmHg 24%
    15:00 +35°C° 0 mm 4 m/s 750 mmHg 23%
    16:00 +34°C° 0 mm 4 m/s 750 mmHg 24%
    17:00 +34°C° 0 mm 5 m/s 749 mmHg 24%
    18:00 +33°C° 0 mm 5 m/s 749 mmHg 24%
    19:00 +32°C° 0 mm 5 m/s 750 mmHg 25%
    20:00 +30°C° 0 mm 5 m/s 750 mmHg 26%
    21:00 +29°C° 0 mm 5 m/s 750 mmHg 27%
    22:00 +28°C° 0 mm 5 m/s 750 mmHg 31%
    23:00 +27°C° 0 mm 5 m/s 750 mmHg 35%
    Arată mai mult